{"data":{"norad_id":65932,"intl_designator":"2025-225Y","name":"STARLINK-35436","alt_names":[],"object_type":"PAYLOAD","status":"ACTIVE","operator":null,"country":"US","launch_date":"2025-10-08","launch_site_code":"AFWTR","launch_vehicle":null,"mission":null,"orbit_class":"UNKNOWN","rcs_meters":null,"size_class":null,"mass_kg":null,"dimensions":null,"purposes":["comms"],"wikipedia_slug":null,"has_3d_model":false,"image_url":null,"decayed_at":null,"tle_current":{"epoch":"2026-05-24T19:25:45.154560Z","epoch_age_seconds":91247,"freshness":"FRESH","line1":"1 65932U 25225Y   26144.80955040  .00024121  00000+0  82385-3 0  9997","line2":"2 65932  53.1589 172.0157 0001266  89.7594 270.3551 15.30201303 36064","mean_motion":15.30201303,"eccentricity":0.0001266,"inclination_deg":53.1589,"raan_deg":172.0157,"arg_perigee_deg":89.7594,"mean_anomaly_deg":270.3551,"bstar":0.00082385,"rev_number":3606,"period_min":94.105265573676,"perigee_km":474.3435450195,"apogee_km":476.0788127784,"semimajor_km":6853.348178899,"source":"CELESTRAK","updated_at":"2026-05-25T13:38:20.990937Z"}}}